Location: Litvinovka
(48.6667°N, 34.3500°E)
Time: 03:53:28
(UTC+00:00)

SPOT 1/Viking Rocket - Pass Details

Date: 18 September 2020
Orbit: 777 x 794 km, 98.5° (Epoch: 22 October)

Event Time Altitude Azimuth Distance (km) Brightness Sun altitude
Exits shadow 17:53:07 30° 70° (ENE) 1,393 4.5 -20.6°
Maximum altitude 17:53:27 30° 63° (ENE) 1,386 4.5 -20.6°
Drops below altitude 10° 17:57:55 10° 4° (N) 2,352 6.3 -21.3°
Sets 18:00:28 0° 354° (N) 3,282 7.3 -21.6°
